World > North America > United States > Mississippi

Hourly Dixie, MS Regional Weather

Feedback E-mail the Weather

Quick WX

Dixie, MS Weather Maps

°F °C°F °C
Dixie Weather Map
UTC Time: 7/4/2022, 14:31
Your Time:

Dixie, MS Regional Weather

Expires:202207041500;;668916
ASUS44 KJAN 041410
RWRMS 

MISSISSIPPI HOURLY WEATHER ROUNDUP
NATIONAL WEATHER SERVICE JACKSON MS
900 AM CDT MON JUL 04 2022

NOTE: "FAIR: INDICATES FEW OR NO CLOUDS BELOW 12,000 FEET WITH NO
SIGNIFICANT WEATHER AND/OR OBSTRUCTIONS TO VISIBILITY.


MSZ059>079-041500-
SOUTH MISSISSIPPI
  
CITY           SKY/WX    TMP DP  RH WIND       PRES   REMARKS
BROOKHAVEN     FAIR      82  82 100 SW5       30.15R HX  97           
HATTIESBURG    PTSUNNY   83  77  82 SW6       30.14R HX  92           
LAUREL         CLOUDY    79  77  92 CALM      30.14R                  
MCCOMB         MOSUNNY   84  76  76 SW6       30.13R HX  93           
NATCHEZ        MOSUNNY   83  77  82 VRB5      30.13R HX  92           
PINE BELT      PTSUNNY   81  80  97 CALM      30.15R HX  91           
$$


SKY/WX - Weather  TMP - Temperature  DP - Dew Point  RH - Humidity
WIND - Wind Direction/Speed PRES - Barometric Pressure VSB - Visibility
WCI - Wind Chill Index E13G22 Wind - East Wind 13 mph/Gusts of 22 mph

Trending Headlines

Dixie Radar Loop



Dixie Quick Facts


National Two Day Weather Forecast


E-mail the Dixie Weather Forecast

Voice your opinion or tell us about page issues...